Lincoln, NE

4:57 AM CST on December 03, 2016 (GMT -0600)
Lincoln Municipal

Weather History for KLNK - October, 2010

Change the Weather History Date:

Friday, October 8, 2010

  Actual Average Record
Temperature  
Mean Temperature 69 °F 56 °F  
Max Temperature 91 °F 69 °F 91 °F (2010)
Min Temperature 46 °F 43 °F 17 °F (2000)
Degree Days  
Heating Degree Days 0 10  
Month to date heating degree days 60 67  
Since 1 July heating degree days 116 165  
Cooling Degree Days 4 1  
Month to date cooling degree days 4 8  
Year to date cooling degree days 1300 1166  
Growing Degree Days 18 (Base 50)    
Moisture  
Dew Point 48 °F    
Average Humidity 55    
Maximum Humidity 86    
Minimum Humidity 24    
Precipitation  
Precipitation 0.00 in 0.07 in 1.79 in (1924)
Month to date precipitation 0.00 0.60  
Year to date precipitation 32.08 25.20  
Snow  
Snow 0.00 in 0.00 in - ()
Month to date snowfall 0.0 0.0  
Since 1 July snowfall 0.0 T  
Snow Depth 0.00 in    
Sea Level Pressure  
Sea Level Pressure 29.98 in    
Wind  
Wind Speed 8 mph (South)    
Max Wind Speed 20 mph    
Max Gust Speed 25 mph    
Visibility 10 miles    
Events      
T = Trace of Precipitation, MM = Missing Value Source: NWS Daily Summary

Daily Weather History Graph

Daily Weather History Graph

Search for Another Location

Airport or City:

Trip Planner

Search our weather history database for the weather conditions in past years. The results will help you decide how hot, cold, wet, or windy it might be!

Date:

Astronomy

Oct. 08, 2010 Rise Set
Actual Time 7:30 AM CDT 6:57 PM CDT
Civil Twilight 7:03 AM CDT 7:25 PM CDT
Nautical Twilight 6:31 AM CDT 7:56 PM CDT
Astronomical Twilight 5:59 AM CDT 8:28 PM CDT
Moon 8:39 AM CDT (10/8) 7:11 PM CDT (10/8)
Length of Visible Light 12h 21m
Length of Day
11h 26m
New Moon, 1% of the Moon is Illuminated
Oct 8
New Moon
Oct 14
First Quarter
Oct 22
Full
Oct 30
Last Quarter
Nov 5
New

Hourly Weather History & Observations

Time (CDT) Temp. Heat Index Dew Point Humidity Pressure Visibility Wind Dir Wind Speed Gust Speed Precip Events Conditions
12:54 AM 55.9 °F - 42.1 °F 60% 30.08 in 10.0 mi Calm Calm - N/A   Clear
1:54 AM 48.0 °F - 43.0 °F 83% 30.08 in 10.0 mi Calm Calm - N/A   Clear
2:54 AM 52.0 °F - 43.0 °F 71% 30.06 in 10.0 mi Calm Calm - N/A   Clear
3:54 AM 46.9 °F - 42.1 °F 83% 30.05 in 10.0 mi Calm Calm - N/A   Clear
4:54 AM 48.9 °F - 43.0 °F 80% 30.04 in 10.0 mi Calm Calm - N/A   Clear
5:54 AM 48.9 °F - 43.0 °F 80% 30.04 in 10.0 mi Calm Calm - N/A   Clear
6:54 AM 46.9 °F - 43.0 °F 86% 30.04 in 10.0 mi Calm Calm - N/A   Clear
7:54 AM 51.1 °F - 44.1 °F 77% 30.03 in 10.0 mi Calm Calm - N/A   Clear
8:54 AM 57.0 °F - 52.0 °F 83% 30.03 in 10.0 mi South 3.5 mph - N/A   Clear
9:54 AM 66.9 °F - 55.0 °F 66% 30.02 in 10.0 mi South 6.9 mph - N/A   Clear
10:54 AM 78.1 °F - 53.1 °F 42% 30.00 in 10.0 mi SSW 11.5 mph - N/A   Clear
11:54 AM 82.9 °F 81.8 °F 53.1 °F 36% 29.98 in 10.0 mi SSW 12.7 mph - N/A   Clear
12:54 PM 87.1 °F 84.9 °F 53.1 °F 31% 29.96 in 10.0 mi South 13.8 mph 23.0 mph N/A   Clear
1:54 PM 89.1 °F - 52.0 °F 28% 29.94 in 10.0 mi SSW 17.3 mph - N/A   Clear
2:54 PM 91.0 °F - 52.0 °F 26% 29.90 in 10.0 mi South 17.3 mph - N/A   Clear
3:54 PM 91.0 °F - 52.0 °F 26% 29.89 in 10.0 mi South 16.1 mph 24.2 mph N/A   Clear
4:54 PM 90.0 °F - 48.0 °F 24% 29.89 in 10.0 mi SSW 12.7 mph - N/A   Clear
5:54 PM 86.0 °F - 48.0 °F 27% 29.89 in 10.0 mi South 11.5 mph - N/A   Clear
6:54 PM 73.9 °F - 50.0 °F 43% 29.90 in 10.0 mi South 10.4 mph - N/A   Clear
7:54 PM 71.6 °F - 48.2 °F 43% 29.92 in 10.0 mi SSE 6.9 mph - N/A   Clear
8:54 PM 66.9 °F - 48.9 °F 52% 29.92 in 10.0 mi South 9.2 mph - N/A   Clear
9:54 PM 62.1 °F - 48.9 °F 62% 29.92 in 10.0 mi South 8.1 mph - N/A   Clear
10:54 PM 64.0 °F - 48.9 °F 58% 29.92 in 10.0 mi South 8.1 mph - N/A   Clear
11:54 PM 62.1 °F - 50.0 °F 65% 29.92 in 10.0 mi South 9.2 mph - N/A   Clear